This demonstration page uses our WeatherBlox Daily Observations layout. Learn more.

Left ArrowRight Arrow

40.92945, -100.16068

Hourly Observations for April 19, 2015

Temp ( °F °C ) Dew Point ( °F °C ) Humidity (%) Winds ( mph kmh ) Pressure ( in mb ) Visibility ( mi km ) Precip ( " mm )
12:15 am 00:15 Mostly Cloudy 52 11.1 48 9.1 88 88 N N/A 29.83 1010 10 16 N/A
12:35 am 00:35 Cloudy 52 11.1 49 9.2 88 88 ENE 5 7 29.83 1010 10 16 N/A
12:55 am 00:55 Cloudy 52 11.3 48 9.1 86 86 SSE 3 6 29.83 1010 10 16 N/A
1:15 am 01:15 Cloudy 52 11.1 49 9.3 89 89 WSW 7 11 29.83 1010 10 16 N/A
1:35 am 01:35 Cloudy 52 11 49 9.2 89 89 W 8 13 29.83 1010 10 16 N/A
1:55 am 01:55 Cloudy 52 11.2 48 9.1 87 87 WNW 9 15 29.83 1010 10 16 0.01 0.25
2:15 am 02:15 Cloudy with Light Rain 52 11.2 49 9.2 88 88 N 6 9 29.83 1010 10 16 N/A
2:35 am 02:35 Cloudy with Drizzle 52 11 49 9.3 89 89 NW 6 9 29.83 1010 10 16 N/A
2:55 am 02:55 Cloudy 52 11.2 49 9.5 89 89 NW 7 11 29.83 1010 10 16 N/A
3:15 am 03:15 Cloudy 52 11.2 49 9.7 91 91 NW 9 15 29.80 1009 10 16 N/A
3:35 am 03:35 Cloudy 52 11.2 49 9.7 91 91 WNW 9 15 29.80 1009 10 16 N/A
3:55 am 03:55 Cloudy 52 11.2 49 9.6 90 90 NW 9 15 29.80 1009 10 16 N/A
4:15 am 04:15 Cloudy with Rain 52 11 49 9.5 91 91 NW 9 15 29.80 1009 10 16 N/A
4:35 am 04:35 Cloudy with Light Rain 52 11 49 9.5 91 91 NW 9 15 29.80 1009 10 16 N/A
4:55 am 04:55 Cloudy with Light Rain 52 11 49 9.5 91 91 NW 9 15 29.83 1010 10 16 0.01 0.25
5:15 am 05:15 Cloudy with Light Rain 51 10.7 49 9.3 91 91 N 21 33 29.83 1010 10 16 N/A
5:35 am 05:35 Cloudy with Light Rain 51 10.5 47 8.5 88 88 N 14 22 29.83 1010 10 16 0.01 0.25
5:55 am 05:55 Cloudy with Drizzle 50 10.2 47 8.3 88 88 NNW 15 24 29.83 1010 10 16 0.01 0.25
6:15 am 06:15 Cloudy with Light Rain 50 10.1 47 8.5 90 90 N 17 28 29.83 1010 10 16 N/A
6:35 am 06:35 Cloudy with Light Rain 50 10.1 47 8.3 89 89 N 16 26 29.83 1010 10 16 N/A
6:55 am 06:55 Cloudy with Light Rain 49 9.7 46 8 89 89 N 23 37 29.83 1010 10 16 0.01 0.25
7:15 am 07:15 Cloudy with Light Rain 49 9.5 46 7.7 89 89 N 29 46 29.83 1010 10 16 N/A
7:35 am 07:35 Cloudy with Light Rain 49 9.2 46 7.5 89 89 N 25 41 29.83 1010 10 16 0.01 0.25
7:55 am 07:55 Cloudy with Light Rain 48 9.1 46 7.5 90 90 N 26 43 29.85 1011 10 16 0.02 0.51
8:15 am 08:15 Cloudy with Light Rain 48 9.1 46 7.5 90 90 N 23 37 29.85 1011 10 16 N/A
8:35 am 08:35 Cloudy with Light Rain 47 8.5 44 6.5 87 87 N 33 54 29.88 1012 10 16 N/A
8:55 am 08:55 Cloudy with Light Rain 46 7.8 41 5 83 83 N 36 57 29.94 1014 10 16 0.01 0.25
9:15 am 09:15 Cloudy 46 7.8 40 4.7 81 81 N 29 46 29.94 1014 10 16 N/A
9:35 am 09:35 Cloudy 46 8 40 4.7 80 80 N 24 39 29.94 1014 10 16 N/A
9:55 am 09:55 Cloudy 46 8 40 4.3 78 78 N 22 35 29.94 1014 10 16 N/A
10:15 am 10:15 Cloudy 47 8.1 39 4.1 76 76 N 23 37 29.97 1015 10 16 N/A
10:35 am 10:35 Cloudy 47 8.3 39 4.1 75 75 N 25 41 29.97 1015 10 16 N/A
10:55 am 10:55 Cloudy 47 8.5 38 3.5 71 71 NNW 22 35 29.97 1015 10 16 N/A
11:15 am 11:15 Cloudy 47 8.5 35 1.7 63 63 N 32 52 30.00 1016 10 16 N/A
11:35 am 11:35 Cloudy 47 8.5 36 2.1 64 64 N 26 43 30.00 1016 10 16 N/A
11:55 am 11:55 Cloudy 47 8.3 33 0.3 57 57 N 22 35 30.00 1016 10 16 N/A
12:15 pm 12:15 Cloudy 47 8.4 34 1.1 60 60 N 22 35 30.00 1016 10 16 N/A
12:35 pm 12:35 Cloudy 47 8.5 35 1.8 63 63 N 17 28 30.00 1016 10 16 N/A
12:55 pm 12:55 Cloudy 49 9.3 35 1.8 60 60 N 22 35 30.00 1016 10 16 N/A
1:15 pm 13:15 Cloudy 50 10 34 1.3 55 55 N 23 37 29.94 1014 10 16 N/A
1:35 pm 13:35 Cloudy 51 10.7 34 1 51 51 N 23 37 29.94 1014 10 16 N/A
1:55 pm 13:55 Cloudy 52 11.1 33 0.8 49 49 N 26 43 29.94 1014 10 16 N/A
2:15 pm 14:15 Mostly Cloudy 53 11.7 35 1.5 50 50 NNW 25 41 29.91 1013 10 16 N/A
2:35 pm 14:35 Mostly Cloudy 53 11.4 32 0.2 46 46 N 24 39 29.94 1014 10 16 N/A
2:55 pm 14:55 Mostly Cloudy 53 11.7 33 0.7 47 47 N 26 43 29.91 1013 10 16 N/A
3:15 pm 15:15 Cloudy 53 11.4 33 0.3 47 47 NNW 24 39 29.91 1013 10 16 N/A
3:35 pm 15:35 Cloudy 53 11.7 32 -0.2 44 44 N 25 41 29.91 1013 10 16 N/A
3:55 pm 15:55 Cloudy 53 11.8 32 0.2 45 45 NNW 25 41 29.91 1013 10 16 N/A
4:15 pm 16:15 Cloudy 53 11.5 32 -0.2 45 45 NNW 24 39 29.91 1013 10 16 N/A
4:35 pm 16:35 Cloudy 53 11.6 31 -0.4 44 44 NNW 28 44 29.91 1013 10 16 N/A
4:55 pm 16:55 Cloudy 53 11.7 31 -0.6 43 43 NNW 26 43 29.85 1011 10 16 N/A
5:15 pm 17:15 Cloudy 53 11.5 31 -0.5 44 44 NNW 29 46 29.91 1013 10 16 N/A
5:35 pm 17:35 Cloudy 53 11.6 31 -0.7 43 43 NNW 31 50 29.91 1013 10 16 N/A
5:55 pm 17:55 Cloudy 53 11.7 31 -0.3 44 44 N 28 44 29.91 1013 10 16 N/A
6:15 pm 18:15 Mostly Cloudy 52 11.1 31 -0.8 44 44 NNW 28 44 29.91 1013 10 16 N/A
6:35 pm 18:35 Mostly Cloudy 51 10.6 32 undefined 48 48 NNW 23 37 29.91 1013 10 16 N/A
6:55 pm 18:55 Partly Cloudy 51 10.4 32 -0.2 48 48 NNW 20 31 29.91 1013 10 16 N/A
7:15 pm 19:15 Partly Cloudy 51 10.5 31 -0.3 47 47 NNW 24 39 29.91 1013 10 16 N/A
7:35 pm 19:35 Partly Cloudy 50 10 32 -0.2 49 49 NNW 22 35 29.91 1013 10 16 N/A
7:55 pm 19:55 Sunny 48 9 32 -0.1 53 53 NNW 17 28 29.94 1014 10 16 N/A
8:15 pm 20:15 Sunny 47 8.4 32 undefined 56 56 NNW 14 22 29.94 1014 10 16 N/A
8:35 pm 20:35 Clear 46 7.5 32 0.1 60 60 NNW 12 19 29.94 1014 10 16 N/A
8:55 pm 20:55 Clear 43 6.3 33 0.4 66 66 NNW 9 15 29.94 1014 10 16 N/A
9:15 pm 21:15 Clear 42 5.3 33 0.5 71 71 NNW 8 13 29.97 1015 10 16 N/A
9:35 pm 21:35 Clear 40 4.3 33 0.3 75 75 NW 7 11 29.97 1015 10 16 N/A
9:55 pm 21:55 Clear 40 4.3 33 0.4 76 76 NW 9 15 29.97 1015 10 16 N/A
10:15 pm 22:15 Clear 40 4.2 32 0.1 75 75 NW 9 15 30.00 1016 10 16 N/A
10:35 pm 22:35 Clear 39 3.7 32 0.2 78 78 NW 9 15 30.00 1016 10 16 N/A
10:55 pm 22:55 Clear 39 4 32 undefined 75 75 NNW 12 19 30.00 1016 10 16 N/A
11:15 pm 23:15 Clear 40 4.5 32 undefined 73 73 NNW 12 19 30.00 1016 10 16 N/A
11:35 pm 23:35 Clear 40 4.3 32 0.1 74 74 NNW 12 19 30.00 1016 10 16 N/A
11:55 pm 23:55 Clear 39 4.1 32 undefined 75 75 NNW 12 19 30.00 1016 10 16 N/A

Powered by AerisWeather